Hurlburt Field, FL

8:27 PM CST on February 19, 2018 (GMT -0600)
Hurlburt

Weather History for KHRT - May, 2014

Change the Weather History Date:

Friday, May 16, 2014

  Actual Average Record
Temperature  
Mean Temperature 64 °F -  
Max Temperature 78 °F 81 °F 91 °F (1998)
Min Temperature 51 °F 63 °F 50 °F (2011)
Degree Days  
Heating Degree Days 1    
Growing Degree Days 14 (Base 50)    
Moisture  
Dew Point 47 °F    
Average Humidity 51    
Maximum Humidity 76    
Minimum Humidity 29    
Precipitation  
Precipitation 0.00 in - - ()
Sea Level Pressure  
Sea Level Pressure 30.14 in    
Wind  
Wind Speed 6 mph (NW)    
Max Wind Speed 18 mph    
Max Gust Speed 23 mph    
Visibility 10 miles    
Events      
Averages and records for this station are not official NWS values.
T = Trace of Precipitation, MM = Missing Value Source: NWS Daily Summary

Daily Weather History Graph

Daily Weather History Graph

Search for Another Location

Airport or City:

Trip Planner

Search our weather history database for the weather conditions in past years. The results will help you decide how hot, cold, wet, or windy it might be!

Date:

Astronomy

May. 16, 2014 Rise Set
Actual Time 5:51 AM CDT 7:34 PM CDT
Civil Twilight 5:25 AM CDT 8:01 PM CDT
Nautical Twilight 4:53 AM CDT 8:32 PM CDT
Astronomical Twilight 4:20 AM CDT 9:06 PM CDT
Moon 9:41 PM CDT (5/16) 7:33 AM CDT (5/16)
Length of Visible Light 14h 35m
Length of Day
13h 42m
Waning Gibbous, 95% of the Moon is Illuminated
May 16
Waning Gibbous
May 21
Last Quarter
May 28
New
Jun 5
First Quarter
Jun 12
Full

Hourly Weather History & Observations

Time (CDT) Temp. Dew Point Humidity Pressure Visibility Wind Dir Wind Speed Gust Speed Precip Events Conditions
12:58 AM 56.7 °F 42.8 °F 60% 30.15 in 10.0 mi NNW 4.6 mph - N/A   Clear
1:58 AM 54.1 °F 44.1 °F 69% 30.15 in 10.0 mi North 3.5 mph - N/A   Clear
2:58 AM 53.6 °F 44.4 °F 71% 30.15 in 10.0 mi NNW 3.5 mph - N/A   Clear
3:58 AM 53.6 °F 44.6 °F 72% 30.14 in 10.0 mi NNW 3.5 mph - N/A   Clear
4:58 AM 53.4 °F 44.4 °F 72% 30.14 in 10.0 mi NNW 3.5 mph - N/A   Clear
5:58 AM 51.8 °F 44.6 °F 76% 30.15 in 10.0 mi NNW 3.5 mph - N/A   Clear
6:58 AM 57.2 °F 44.4 °F 62% 30.17 in 10.0 mi NW 4.6 mph - N/A   Clear
7:58 AM 63.1 °F 46.6 °F 55% 30.18 in 10.0 mi WNW 5.8 mph - N/A   Clear
8:58 AM 67.8 °F 44.8 °F 43% 30.19 in 10.0 mi NW 9.2 mph - 0.00 in   Clear
9:58 AM 71.1 °F 39.6 °F 32% 30.19 in 10.0 mi NNW 11.5 mph 17.3 mph N/A   Clear
10:58 AM 72.9 °F 41.5 °F 32% 30.18 in 10.0 mi NW 11.5 mph 18.4 mph N/A   Clear
11:49 AM 75.2 °F 41.0 °F 29% 30.16 in 10.0 mi North 13.8 mph 20.7 mph N/A   Clear
11:58 AM 74.7 °F 41.7 °F 31% 30.17 in 10.0 mi NNW 18.4 mph 23.0 mph N/A   Partly Cloudy
12:58 PM 76.5 °F 43.3 °F 31% 30.15 in 10.0 mi NNW 15.0 mph - N/A   Partly Cloudy
1:58 PM 77.4 °F 45.9 °F 33% 30.13 in 10.0 mi NNW 11.5 mph 17.3 mph N/A   Partly Cloudy
2:58 PM 77.7 °F 44.6 °F 31% 30.11 in 10.0 mi West 6.9 mph - N/A   Partly Cloudy
3:58 PM 73.4 °F 49.3 °F 42% 30.11 in 10.0 mi WSW 11.5 mph 21.9 mph N/A   Mostly Cloudy
4:58 PM 73.9 °F 49.6 °F 42% 30.10 in 10.0 mi SW 11.5 mph - N/A   Mostly Cloudy
5:58 PM 73.4 °F 51.8 °F 47% 30.09 in 10.0 mi Variable 6.9 mph - N/A   Mostly Cloudy
6:58 PM 72.5 °F 52.7 °F 50% 30.09 in 10.0 mi WSW 6.9 mph - N/A   Partly Cloudy
7:58 PM 70.9 °F 51.8 °F 51% 30.11 in 10.0 mi WSW 3.5 mph - N/A   Clear
8:58 PM 69.4 °F 50.9 °F 52% 30.12 in 10.0 mi West 4.6 mph - N/A   Clear
9:58 PM 68.9 °F 51.6 °F 54% 30.16 in 10.0 mi Calm Calm - N/A   Mostly Cloudy
10:58 PM 67.3 °F 52.5 °F 59% 30.16 in 10.0 mi Calm Calm - N/A   Clear
11:58 PM 62.8 °F 54.7 °F 75% 30.16 in 10.0 mi North 2.3 mph - N/A   Partly Cloudy